Location: Johnson City
(36.3130°N, 82.3540°W)
Time: 11:05:00
(UTC-04:00)

ISS - Visible Passes

Search period start: 22 April 2019 00:00
Search period end: 02 May 2019 00:00
Orbit: 408 x 410 km, 51.6° (Epoch: 23 April)

Date Brightness Start Highest point End Pass type
(mag) Time Alt. Az. Time Alt. Az. Time Alt. Az.
26 Apr -1.2 05:40:28 10° S 05:42:37 16° SE 05:44:47 10° E visible
28 Apr -3.1 05:35:03 17° SSW 05:37:17 47° SE 05:40:29 10° ENE visible
29 Apr -2.0 04:46:23 23° SE 04:46:33 23° SE 04:49:14 10° ENE visible
30 Apr -3.5 05:30:22 25° WSW 05:32:04 56° NW 05:35:20 10° NE visible
01 May -3.5 04:41:31 64° E 04:41:31 64° E 04:44:29 10° NE visible
